Flag for Portugal Weather past 2 weeks in Porto, Portugal

52 °F

Light fog.

Feels Like: 52 °F
Forecast: 50 / 60 °F
Wind: 1 mph from Northeast

Location: Porto / Pedras Rubras

Current Time: Nov 25, 2015 at 1:08:01 AM

Latest Report: Nov 25, 2015 at 12:00 AM

Visibility: 2 mi

Pressure: 30.48 "Hg

Humidity: 100%

Dew point: 52 °F

Location of PortoLocation

Historic Weather in Porto — Graph


Porto temperature yesterday

Maximum temperature yesterday: 57 °F (at 12:30 PM)
Minimum temperature yesterday: 37 °F (at 6:00 AM)
Average temperature yesterday: 48 °F

Past Weeks' High & Low Weather Summary

High72 °F (Nov 10, 11:30 AM)100% (Nov 9, 11:00 PM)30.51 "Hg (Nov 9, 11:00 PM)
Low37 °F (Nov 23, 6:00 AM)47% (Nov 23, 11:30 AM)30.01 "Hg (Nov 22, 3:00 PM)
Average55 °F86%30.33 "Hg
* Reported Nov 9 11:00 PM — Nov 24 11:30 PM, Porto, Weather by CustomWeather, © 2015

Note: Actual official high and low records may vary slightly from our data, if they occured in-between our weather recording intervals... More about our weather records


Porto weather history for previous 24 hours

Time TempWeatherWind HumidityBarometerVisibility
11:30 PM
Tue, Nov 24
52 °FFog.2 mph100%30.48 "Hg3 mi
11:00 PM54 °FPassing clouds.2 mph94%30.48 "Hg4 mi
10:30 PM54 °FPartly cloudy.No wind94%30.48 "Hg4 mi
10:00 PM54 °FPartly cloudy.No wind100%30.48 "Hg4 mi
9:30 PM54 °FPartly cloudy.1 mph100%30.45 "Hg4 mi
9:00 PM54 °FPartly cloudy.No wind94%30.48 "Hg4 mi
8:30 PM54 °FPartly cloudy.No wind94%30.48 "Hg4 mi
8:00 PM54 °FPartly cloudy.2 mph94%30.45 "Hg6 mi
7:30 PM54 °FPassing clouds.No wind94%30.45 "Hg4 mi
7:00 PM54 °FPartly cloudy.1 mph94%30.45 "Hg4 mi
6:30 PM54 °FPassing clouds.1 mph94%30.45 "Hg4 mi
6:00 PM54 °FPartly cloudy.3 mph94%30.45 "Hg5 mi
5:30 PM55 °FPartly cloudy.5 mph82%30.45 "HgN/A
5:00 PM57 °FPartly sunny.5 mph77%30.45 "HgN/A
4:30 PM57 °FPartly sunny.3 mph77%30.42 "HgN/A
4:00 PM57 °FPartly sunny.2 mph77%30.42 "HgN/A
3:30 PM57 °FPartly sunny.3 mph77%30.42 "HgN/A
3:00 PM57 °FBroken clouds.6 mph72%30.42 "HgN/A
2:30 PM57 °FScattered clouds.5 mph72%30.42 "HgN/A
2:00 PM57 °FPassing clouds.5 mph67%30.42 "HgN/A
1:30 PM57 °FPassing clouds.5 mph72%30.45 "HgN/A
1:00 PM57 °FPassing clouds.10 mph67%30.45 "HgN/A
12:30 PM57 °FPassing clouds.9 mph67%30.45 "HgN/A
12:00 PM55 °FSunny.8 mph67%30.45 "Hg10 mi
11:30 AM54 °FPassing clouds.7 mph72%30.45 "HgN/A
11:00 AM52 °FClear.3 mph72%30.45 "Hg6 mi
10:30 AM50 °FClear.3 mph76%30.45 "Hg5 mi
10:00 AM46 °FClear.5 mph82%30.45 "Hg5 mi
9:30 AM45 °FClear.2 mph87%30.45 "Hg5 mi
9:00 AM43 °FSunny.6 mph87%30.42 "Hg10 mi
8:30 AM41 °FClear.7 mph93%30.42 "Hg6 mi
8:00 AM37 °FClear.3 mph93%30.42 "Hg6 mi
7:30 AM37 °FClear.3 mph100%30.42 "Hg6 mi
7:00 AM37 °FPassing clouds.6 mph93%30.42 "HgN/A
6:30 AM39 °FClear.5 mph93%30.39 "Hg10 mi
6:00 AM37 °FClear.5 mph100%30.39 "Hg6 mi
5:30 AM39 °FClear.3 mph93%30.39 "Hg6 mi
5:00 AM39 °FClear.No wind93%30.39 "Hg6 mi
4:30 AM39 °FClear.2 mph93%30.39 "Hg6 mi
4:00 AM39 °FClear.2 mph93%30.39 "Hg6 mi
3:30 AM39 °FClear.No wind93%30.39 "Hg6 mi
3:00 AM41 °FClear.No wind93%30.39 "Hg10 mi
2:30 AM41 °FClear.3 mph93%30.39 "Hg6 mi
2:00 AM41 °FPassing clouds.3 mph93%30.39 "HgN/A
1:30 AM41 °FClear.2 mph93%30.39 "Hg10 mi
1:00 AM41 °FClear.2 mph100%30.39 "Hg10 mi
Weather by CustomWeather, © 2015

See weather overviewHow to use our weather pages